Theta_e
302 303 303 303 303 303 303 303 302 301 301 301 301 301 301 301 302 307 307 306 306 306 306 308 314 311 316 324 326 320 322 322 321 322 328 340 340 340 341 340 340 343 345 346 351 354 356
302 302 302 303 302 302 302 301 301 301 301 301 301 301 301 301 302 307 306 307 306 306 308 312 311 312 320 330 318 318 322 331 325 320 327 340 339 337 337 337 336 340 343 344 349 353 354
302 302 302 302 302 301 301 301 301 301 301 301 301 301 302 302 302 307 307 307 307 309 310 310 315 317 328 327 317 318 322 328 326 322 327 336 336 335 335 334 333 333 338 338 342 354 354
301 301 301 301 301 301 301 300 300 300 301 300 301 303 304 303 302 307 307 308 308 308 311 314 315 323 332 316 317 317 321 327 327 324 325 334 334 333 334 333 330 330 333 338 340 353 354
302 301 301 301 301 301 301 300 300 300 300 302 305 306 307 306 303 307 307 308 307 308 310 313 324 326 329 316 317 317 318 326 326 326 330 334 332 332 330 333 331 329 330 336 339 346 353
305 303 302 302 301 301 301 301 300 300 304 306 306 307 308 308 305 307 308 311 312 311 320 321 321 323 321 317 317 318 319 326 328 330 332 333 332 330 330 331 333 330 328 331 336 338 349
310 305 303 302 302 302 301 300 300 303 306 306 307 307 308 308 306 308 307 316 321 325 320 322 321 320 317 317 316 320 322 322 327 331 331 331 332 332 331 329 331 329 328 327 331 334 349
316 309 305 303 302 302 301 300 302 306 306 307 307 307 308 308 306 308 308 318 315 315 317 319 316 315 315 316 317 321 324 327 328 333 328 328 331 331 327 330 330 331 330 328 329 332 342
317 310 306 304 303 301 300 300 305 306 306 307 307 307 308 308 306 308 314 315 314 315 316 317 316 315 316 316 317 317 319 325 327 327 330 327 327 326 327 327 329 328 329 328 329 332 337
316 312 307 305 302 301 300 302 306 306 307 307 307 308 307 307 310 315 315 314 315 315 317 318 315 315 315 315 316 317 316 320 323 326 326 329 328 327 325 327 327 328 327 327 327 330 337
316 313 307 305 302 301 300 304 306 307 307 307 307 307 307 303 309 316 315 314 314 315 319 316 316 314 316 315 316 316 315 317 319 323 326 326 327 328 327 326 326 327 328 328 327 327 331
315 312 307 304 302 300 302 306 307 307 307 307 307 307 305 310 311 314 313 314 314 316 316 316 316 314 314 315 316 316 315 316 318 319 321 323 326 325 325 325 325 326 326 327 328 326 327
313 310 305 303 302 302 306 307 307 307 307 307 307 306 304 309 317 315 313 316 316 316 318 317 315 314 315 316 316 315 316 316 315 316 317 321 323 326 327 325 325 326 326 328 329 329 327
311 307 304 302 304 306 307 307 307 307 307 307 309 308 312 311 312 312 313 317 318 318 317 316 314 314 314 316 315 315 315 316 318 317 318 319 317 320 325 327 326 326 326 328 331 330 329
310 306 303 304 306 307 307 308 307 307 307 307 310 314 314 314 312 312 316 319 318 317 316 315 315 313 313 314 315 316 316 316 317 318 317 317 319 321 320 324 325 327 330 327 328 329 330
308 305 304 307 307 307 308 307 307 307 307 308 310 316 314 314 312 313 317 317 318 316 316 315 315 315 317 317 316 316 316 317 316 318 317 318 319 320 321 322 323 324 326 329 329 333 336
304 305 307 307 307 307 307 307 307 307 307 311 314 320 316 316 315 317 319 321 320 317 316 316 317 318 318 318 318 318 317 317 316 316 315 315 316 317 320 320 320 321 322 325 329 331 333
305 306 308 308 308 308 307 307 307 307 307 314 319 320 317 316 320 321 322 319 311 318 317 317 316 317 317 317 318 318 318 317 316 315 316 316 314 317 317 318 319 318 319 318 321 333 332
305 306 308 308 308 308 308 308 308 307 306 310 321 319 317 318 322 322 319 318 316 316 317 316 317 317 317 317 317 317 317 316 315 314 316 316 316 316 317 317 317 316 316 316 317 319 327
304 305 308 308 308 308 308 308 307 307 307 310 321 322 320 317 317 318 319 317 317 315 316 315 315 315 316 316 316 317 318 316 315 313 315 313 315 317 318 318 317 318 317 316 316 321 323
304 307 308 308 308 308 308 308 308 309 311 312 318 318 316 318 317 317 317 316 316 315 314 314 315 315 315 315 316 316 315 317 316 315 313 313 314 315 315 315 315 316 316 316 316 316 322
305 307 308 308 308 308 308 308 308 311 313 315 317 318 316 315 315 316 314 315 314 314 314 314 314 313 313 314 314 315 314 315 316 317 315 313 314 315 316 315 316 316 315 315 316 315 316
305 308 308 308 308 308 308 308 308 311 312 314 314 314 316 313 315 315 315 314 314 314 314 313 313 313 313 313 312 312 312 313 314 314 318 316 316 316 317 314 316 317 317 315 315 316 316
305 308 308 308 308 308 308 308 308 311 312 313 313 315 319 316 315 315 314 313 314 313 314 313 314 312 312 312 312 312 312 312 312 313 314 315 318 320 320 317 322 317 316 316 314 315 315
305 308 308 307 308 307 308 308 308 309 313 315 313 314 316 317 315 315 314 314 315 314 314 313 313 312 312 313 315 316 315 315 314 313 312 313 316 320 321 319 316 314 315 315 317 315 314
307 308 308 307 308 308 308 308 308 308 312 314 312 313 316 320 317 314 315 314 315 315 315 314 313 313 313 313 315 317 319 317 316 314 315 314 315 321 320 319 317 314 313 314 314 316 314
309 308 308 308 308 308 308 308 308 308 311 313 315 314 316 320 316 315 316 316 314 314 315 314 314 314 313 313 316 319 318 316 318 316 316 318 320 322 321 320 315 313 313 314 315 314 317
309 308 309 308 308 308 308 308 308 308 310 313 315 314 316 320 316 315 315 316 315 315 317 315 316 315 314 315 315 315 315 315 315 314 317 316 322 320 321 320 319 316 316 317 316 316 315
309 308 310 308 308 308 309 309 308 308 309 311 316 315 314 315 318 316 316 313 314 314 315 315 316 315 314 314 314 313 315 314 315 317 312 318 314 314 315 318 314 313 314 313 313 313 313
Wind_Speed
18 18 18 19 20 21 22 23 25 26 27 27 28 29 30 30 32 29 22 20 21 18 15 12 10 8 1 7 4 5 3 7 13 18 22 18 20 18 18 18 19 19 20 7 6 12 7
17 18 18 18 19 21 22 24 25 27 28 28 29 29 30 30 31 28 21 22 19 14 9 9 10 5 6 10 4 1 2 9 15 23 23 22 15 16 15 19 18 17 18 16 2 10 11
17 18 19 20 21 21 23 25 26 27 28 29 30 30 31 31 30 25 20 23 15 10 9 8 4 5 11 10 3 2 5 10 19 25 19 24 21 16 16 13 16 14 19 11 14 10 10
19 20 20 20 21 22 23 25 25 26 27 29 30 30 31 32 30 23 18 22 11 10 5 3 2 5 8 2 4 5 5 8 13 22 25 20 19 15 17 13 17 12 17 16 17 16 13
20 20 20 21 21 22 24 25 25 26 27 28 29 29 31 30 30 22 19 17 9 8 6 4 5 10 8 3 6 1 7 11 16 20 21 16 15 14 12 16 14 14 15 20 21 24 18
20 20 20 21 22 23 24 24 25 26 27 29 30 30 31 30 28 21 21 18 12 11 8 9 15 11 10 4 2 3 6 8 11 14 12 12 10 13 13 15 15 16 17 18 18 18 22
21 20 20 21 21 22 23 24 26 27 28 29 31 30 31 31 27 17 23 8 4 6 12 12 2 9 2 3 7 3 8 12 12 14 14 18 13 16 20 21 20 21 19 19 17 17 20
20 18 19 21 21 22 23 25 26 27 28 30 31 30 31 31 26 16 17 8 7 7 9 15 9 9 3 6 4 5 6 11 13 14 16 13 20 20 19 19 20 21 20 19 14 17 19
21 18 18 19 21 22 24 25 27 28 29 31 31 30 31 30 24 15 13 5 8 8 7 14 12 12 6 7 11 9 7 13 14 16 18 21 14 22 21 19 19 19 19 17 19 14 12
19 18 18 19 20 22 23 26 27 29 31 32 31 30 30 29 13 14 8 4 8 4 5 14 11 4 5 7 8 5 3 11 11 17 19 21 22 19 20 22 19 19 16 18 19 17 12
18 17 17 18 20 22 25 27 29 31 34 35 33 31 27 14 17 10 8 8 8 5 5 11 10 5 1 11 8 11 2 10 15 14 11 17 22 21 21 18 21 18 17 14 17 18 18
17 17 15 17 21 23 26 28 30 33 36 35 33 27 20 4 11 12 8 9 6 6 5 6 6 8 10 9 5 1 5 10 10 12 18 16 19 17 20 18 17 18 14 19 16 15 16
16 15 15 18 21 24 27 29 32 34 36 34 32 14 10 10 9 9 11 9 6 9 10 9 8 7 10 12 7 5 8 11 10 10 12 15 19 17 13 17 21 17 15 12 13 13 17
15 14 17 20 23 25 27 30 32 35 36 33 26 9 8 8 10 11 11 9 10 11 6 9 2 3 7 9 8 4 5 9 12 12 12 12 14 20 15 17 14 19 18 14 18 14 18
15 16 19 21 24 26 28 31 32 34 34 31 25 14 13 6 7 7 8 8 3 11 17 9 2 6 10 9 3 3 9 13 10 5 9 11 17 5 23 17 18 21 20 22 23 20 17
15 17 20 23 25 27 28 30 32 34 34 24 19 15 7 5 4 9 7 12 6 14 12 10 8 11 12 8 11 6 9 1 4 4 8 10 15 16 9 5 9 14 14 14 15 22 23
18 20 21 23 25 27 27 29 31 33 34 12 8 6 8 9 4 6 7 4 8 11 10 10 12 12 13 12 14 6 10 6 0 1 3 13 12 19 9 9 14 13 16 14 14 13 19
20 22 21 24 26 25 26 27 28 29 35 13 11 3 12 6 6 6 8 7 3 10 7 2 4 6 7 12 15 16 14 9 13 7 5 9 9 13 19 13 14 16 20 18 13 17 15
22 23 23 23 24 24 25 26 26 24 24 15 5 3 10 6 4 6 7 7 8 12 11 7 6 9 12 9 7 9 11 12 5 3 6 9 7 9 16 15 18 13 17 18 19 18 22
23 22 22 23 22 23 23 24 23 21 20 14 5 2 5 5 6 10 6 9 7 11 10 11 9 7 7 7 6 5 9 7 12 7 10 6 10 14 13 10 14 11 16 18 19 15 15
24 22 22 21 21 21 21 21 21 18 19 9 4 5 5 6 8 8 13 11 14 10 11 6 2 6 7 7 12 11 5 5 8 13 6 6 14 17 20 22 18 18 18 21 24 23 21
24 22 21 20 18 18 19 18 18 17 17 4 6 5 6 5 3 7 5 8 7 9 6 8 8 11 11 9 11 15 14 12 8 11 13 12 15 17 21 21 21 23 20 20 20 17 22
24 21 19 17 16 16 16 16 15 16 15 7 5 2 3 3 9 5 6 5 5 9 8 8 11 9 10 9 14 14 13 15 12 13 11 14 11 12 20 19 20 23 20 20 19 19 15
24 20 18 15 14 13 12 12 13 12 15 10 7 6 3 7 8 7 5 4 8 6 6 8 6 7 7 14 16 15 17 18 18 17 16 15 13 7 12 15 13 16 19 23 23 23 20
23 18 16 13 11 11 9 9 10 9 12 11 10 6 3 3 4 4 5 5 9 3 8 4 4 5 10 11 7 9 8 12 14 17 18 17 13 7 9 12 17 22 16 18 13 19 19
21 16 13 11 9 7 7 6 8 7 7 8 10 5 4 3 8 5 5 2 4 7 4 4 4 7 10 4 2 3 4 7 2 6 10 15 16 12 12 13 17 22 21 9 9 14 14
19 15 12 9 6 5 5 4 5 5 4 6 5 3 7 4 7 4 6 5 3 4 2 2 8 4 8 4 3 3 3 2 4 6 10 8 8 13 12 15 13 18 18 5 10 15 14
17 14 11 7 4 3 3 2 2 2 1 8 5 4 6 5 6 4 2 2 3 2 2 7 1 3 4 4 3 3 3 3 3 3 7 5 6 3 8 10 14 17 13 9 10 13 13
16 13 11 7 3 3 2 2 1 1 2 2 4 3 5 5 5 7 4 3 3 1 3 5 2 4 3 1 1 0 1 2 4 2 3 2 4 4 4 5 13 16 12 17 16 17 22
Wind_Direction
8 7 5 3 360 358 357 355 353 351 350 350 349 347 347 345 344 342 339 334 328 318 311 296 295 298 240 218 250 126 343 195 195 196 214 226 213 213 223 235 234 236 254 292 252 186 103
3 1 359 357 355 353 352 350 350 348 346 345 346 344 343 342 342 340 337 333 331 327 313 295 294 254 243 248 35 274 265 191 193 194 211 227 214 223 231 248 245 242 239 258 314 241 167
356 354 352 351 350 349 348 348 348 347 345 344 344 342 340 339 340 337 334 333 329 330 308 305 257 201 263 286 321 277 225 207 201 196 207 226 226 234 237 264 277 273 273 260 221 244 202
353 351 349 348 348 349 348 347 347 346 344 343 342 341 338 336 337 331 325 329 316 329 334 311 175 242 281 13 284 229 210 201 190 195 214 218 228 248 249 257 264 268 250 254 234 197 212
349 348 347 347 347 346 346 347 347 346 344 342 342 340 336 335 335 326 317 323 297 294 292 268 265 214 252 169 228 255 224 197 183 200 223 237 219 246 241 257 255 248 240 229 257 190 204
346 345 345 343 345 346 347 348 345 344 343 341 340 339 334 333 332 320 310 314 277 275 271 242 260 263 225 195 26 282 204 209 196 201 206 236 223 228 234 230 231 239 218 245 224 242 202
345 341 341 342 345 345 346 345 343 342 342 340 338 338 332 331 330 314 313 314 205 204 233 257 172 249 143 161 233 232 178 218 194 200 210 209 212 216 224 228 243 268 284 235 249 233 190
343 339 339 341 342 344 345 343 342 342 342 338 337 338 330 328 325 300 299 280 31 334 292 231 246 268 283 284 217 160 239 193 192 205 213 203 227 229 226 236 232 255 265 278 247 242 215
337 339 341 341 343 344 343 341 340 341 339 337 337 336 329 324 317 282 256 348 313 307 263 247 209 234 182 219 246 133 230 226 221 221 219 229 222 219 236 233 241 239 250 261 271 260 238
336 339 340 341 343 342 341 339 338 338 337 337 336 333 328 323 303 285 242 350 309 311 269 164 182 220 205 242 233 137 283 296 229 249 224 230 240 237 216 235 235 243 238 257 275 278 231
338 339 341 341 342 340 340 339 337 338 339 337 335 331 321 317 300 297 3 313 318 234 267 151 121 99 108 221 100 184 234 266 259 246 249 236 235 235 246 221 236 246 254 242 246 269 274
339 341 343 343 342 341 338 336 338 339 338 336 334 328 316 270 239 263 319 306 252 235 231 129 128 180 194 201 187 116 233 219 299 280 273 261 270 224 245 243 253 240 246 261 261 239 248
345 346 346 344 342 341 338 338 339 340 338 337 333 323 286 286 301 328 310 273 231 250 141 142 174 177 211 164 185 243 221 206 230 216 239 244 259 267 267 251 217 235 216 236 235 234 242
351 351 345 344 343 340 339 341 339 339 338 337 332 294 272 255 293 303 287 255 261 284 77 83 63 113 254 204 210 185 271 255 233 269 290 256 220 223 211 237 242 211 221 226 226 232 239
357 349 343 343 342 342 342 340 340 340 339 340 328 277 240 242 314 285 264 245 302 9 18 27 273 236 262 196 246 260 246 272 283 192 271 287 267 358 211 201 226 246 219 240 261 254 249
350 349 343 343 345 343 343 342 342 342 340 345 323 295 92 326 314 262 256 265 23 33 7 353 307 317 319 275 174 231 255 110 254 44 359 301 308 286 175 261 231 250 282 240 227 252 265
354 346 346 345 345 345 344 344 346 346 342 340 273 231 60 341 258 244 250 28 21 32 29 349 347 324 322 313 313 305 284 71 57 14 294 299 281 275 277 191 240 236 257 257 277 262 247
348 343 346 345 345 346 345 344 348 352 348 355 288 315 17 328 256 255 43 19 316 7 4 298 295 295 296 318 317 320 324 323 32 357 286 290 289 266 263 260 192 256 272 251 243 245 269
344 344 344 345 346 347 345 344 348 353 360 334 285 36 43 305 320 352 56 53 58 10 12 6 333 2 337 323 322 290 302 301 49 303 354 318 261 261 266 266 257 237 250 253 267 241 251
344 345 344 345 348 347 345 347 349 350 352 343 281 325 77 58 29 358 5 40 39 71 26 357 328 335 312 297 270 283 305 341 338 281 29 328 279 279 268 268 346 296 261 253 271 248 249
341 343 344 348 350 349 349 350 350 351 348 335 329 53 348 16 26 56 30 19 41 9 360 17 59 39 339 320 330 291 281 326 293 292 234 263 268 272 281 292 296 287 286 287 233 253 254
341 343 347 349 354 352 350 351 360 4 358 37 354 351 62 24 294 65 82 47 27 13 11 343 353 339 318 316 305 305 303 294 278 285 300 251 253 270 276 282 281 278 260 262 278 258 252
341 343 348 353 356 355 351 358 13 17 11 47 46 39 287 346 47 41 49 29 359 9 310 327 352 334 316 345 328 308 294 292 267 258 245 258 266 273 266 262 270 259 254 259 261 263 272
341 341 350 355 356 355 355 7 22 29 19 35 36 345 332 62 49 39 8 16 353 352 310 314 332 322 318 315 308 288 272 260 253 249 234 247 254 244 266 283 260 255 268 272 248 258 257
342 341 351 352 354 359 3 16 31 43 22 19 35 32 358 84 117 154 21 338 292 270 236 354 14 308 305 311 320 309 273 237 268 259 243 237 230 246 246 250 269 276 267 260 317 261 259
342 337 346 347 356 9 10 29 38 50 35 38 51 14 332 342 56 41 13 28 348 345 331 50 13 359 344 341 322 285 338 349 359 305 236 266 255 221 232 244 248 252 255 24 342 272 278
341 336 340 340 350 8 11 28 51 54 53 353 50 6 296 302 63 358 34 24 349 27 293 317 338 19 20 34 332 5 351 337 335 324 334 312 280 246 245 245 253 262 272 115 234 268 328
339 334 335 330 332 344 344 351 66 46 47 356 38 15 340 324 81 16 111 266 228 164 267 8 5 344 47 32 19 8 329 354 310 281 325 297 315 286 238 245 261 8 315 249 322 314 309
336 330 331 322 291 304 297 315 293 157 206 345 311 350 318 280 329 319 299 303 216 334 335 24 45 35 71 51 98 283 303 312 311 333 10 295 334 313 305 307 317 308 312 308 307 296 292